Location: Csohesd
(46.2500°N, 22.6167°E)
Time: 05:44:14
(UTC+00:00)

Meteor 2-10 Rocket - Pass Details

Date: 21 October 2021
Orbit: 733 x 885 km, 81.2° (Epoch: 04 December)

Event Time Altitude Azimuth Distance (km) Brightness Sun altitude
Rises 16:59:08 0° 171° (S) 3,423 6.8 -15.6°
Reaches altitude 10° 17:01:39 10° 166° (SSE) 2,472 6.0 -16.1°
Maximum altitude 17:06:59 47° 94° (E) 1,091 3.8 -17.0°
Drops below altitude 10° 17:12:09 10° 22° (NNE) 2,394 5.9 -17.9°
Sets 17:14:34 0° 17° (NNE) 3,305 6.6 -18.3°
